User: anonymous   Login
Location: Unspecified
(0.0000°N, 0.0000°E)
Time: 04:40:32
(UTC+01:00)
Language:

NATO 3D Rocket - Orbit

View from above orbital plane
View from above orbital plane
View from above satellite
View from above satellite

Ground track
Ground track

The orbit data is extracted from the following two-line orbital elements,

1 15392U 84115B   16041.33095746 +.00000302 +00000-0 +13552-3 0  9992
2 15392 021.4989 043.2348 1034343 316.6009 035.7343 12.45519145404721
Epoch (UTC): 10 February 2016 07:56:34
Eccentricity: 0.1034343
inclination: 21.4989°
perigee height: 670 km
apogee height: 2296 km
right ascension of ascending node: 43.2348°
argument of perigee: 316.6009°
revolutions per day: 12.45519145
mean anomaly at epoch: 35.7343°
orbit number at epoch: 40472

The dashed part of the orbit path shows where the satellite is in the earth's shadow,  

DLR